Simultaneous Nadir Overpasses (SNOs) Predictions

Prediction of SNOs between GOES-16 and METOP-C Satellite Orbit:

Table of predicted SNOs for the next 14.0 days since TLE Epoch: 1/29/2022
Index Date Time (GOES-16) GOES-16 Lat,Lon METOP-C Lat,Lon Distance(km) Time Diff (sec)
1 01/29/2022 14:22:20 -0.01, -75.22 -0.48, -73.13 238.22 80
2 01/31/2022 02:44:01 -0.00, -75.19 -0.56, -77.72 288.34 80
3 02/01/2022 02:20:42 -0.00, -75.19 0.55, -72.73 280.86 80
4 02/02/2022 14:42:12 0.02, -75.22 0.49, -77.28 235.11 80
5 02/03/2022 14:18:53 0.01, -75.23 -0.61, -72.28 334.76 80
6 02/05/2022 02:40:34 -0.02, -75.22 -0.42, -76.88 189.96 80
7 02/06/2022 02:17:15 -0.02, -75.23 0.75, -71.90 380.35 80
8 02/07/2022 14:38:46 0.02, -75.27 0.29, -76.45 134.38 80
9 02/08/2022 14:15:26 0.02, -75.28 -0.81, -71.45 436.17 80
10 02/10/2022 02:37:07 -0.02, -75.29 -0.20, -76.05 87.64 80
11 02/11/2022 02:13:48 -0.02, -75.30 0.91, -71.06 483.14 80
